QFA34 FAOR-YSSY

Flight info

Callsign QFA34
Flight time 6h 49m
Altitude 35000
Route APDAK1B APDAK UQ48 AVAVA UZ8 ETMAL DCT OKLEP UQ5 GEVIS DCT 34S040E 40S050E 46S060E 48S070E 50S080E 50S090E 50S100E 50S110E 48S120E 44S130E 40S140E DCT ML H129 DOSEL Y59 RIVET
Aircraft A388/J-SADE2E3FGHIJ3J4J5M1RWXY/LB1D1

Departure

Time 2026-04-22 07:03
Airport O.R. Tambo International Airport (FAOR)

Arrival

Time 2026-04-22 13:52
Airport Sydney Kingsford Smith International Airport (YSSY)
Time Latitude Longitude Altitude Speed Heading
2026-04-22 06:34 -26.12913 28.23657 5551 ft 0 kts 186°
2026-04-22 06:46 -26.12900 28.23659 5555 ft 4 kts 182°
2026-04-22 06:46 -26.12879 28.23651 5552 ft 4 kts 118°
2026-04-22 06:47 -26.12872 28.23624 5551 ft 4 kts 97°
2026-04-22 06:47 -26.12870 28.23612 5551 ft 1 kts 96°
2026-04-22 06:54 -26.12871 28.23613 5551 ft 1 kts 96°
2026-04-22 06:54 -26.12871 28.23625 5551 ft 1 kts 72°
2026-04-22 06:54 -26.12859 28.23653 5551 ft 7 kts 65°
2026-04-22 06:55 -26.12835 28.23717 5554 ft 9 kts 78°
2026-04-22 06:55 -26.12844 28.23768 5553 ft 7 kts 136°
2026-04-22 06:55 -26.12908 28.23772 5552 ft 13 kts 195°
2026-04-22 06:55 -26.13011 28.23738 5552 ft 14 kts 195°
2026-04-22 06:56 -26.13099 28.23725 5554 ft 9 kts 154°
2026-04-22 06:56 -26.13109 28.23731 5553 ft 0 kts 146°
2026-04-22 06:56 -26.13112 28.23734 5553 ft 1 kts 144°
2026-04-22 06:57 -26.13125 28.23744 5553 ft 3 kts 141°
2026-04-22 06:57 -26.13154 28.23776 5553 ft 9 kts 131°
2026-04-22 06:57 -26.13207 28.23839 5555 ft 13 kts 135°
2026-04-22 06:57 -26.13286 28.23924 5555 ft 18 kts 136°
2026-04-22 06:58 -26.13372 28.24013 5558 ft 15 kts 151°
2026-04-22 06:58 -26.13465 28.24009 5558 ft 14 kts 196°
2026-04-22 06:58 -26.13560 28.23979 5558 ft 14 kts 195°
2026-04-22 06:58 -26.13646 28.23952 5560 ft 12 kts 196°
2026-04-22 06:59 -26.13727 28.23926 5563 ft 14 kts 196°
2026-04-22 06:59 -26.13850 28.23888 5567 ft 19 kts 195°
2026-04-22 06:59 -26.13967 28.23852 5567 ft 16 kts 195°
2026-04-22 06:59 -26.14071 28.23821 5568 ft 15 kts 195°
2026-04-22 07:00 -26.14176 28.23789 5566 ft 16 kts 195°
2026-04-22 07:00 -26.14287 28.23755 5567 ft 16 kts 195°
2026-04-22 07:00 -26.14389 28.23715 5569 ft 14 kts 221°
2026-04-22 07:00 -26.14427 28.23625 5569 ft 13 kts 255°
2026-04-22 07:01 -26.14440 28.23533 5570 ft 8 kts 296°
2026-04-22 07:01 -26.14409 28.23510 5570 ft 2 kts
2026-04-22 07:01 -26.14392 28.23514 5568 ft 7 kts 15°
2026-04-22 07:01 -26.14155 28.23586 5571 ft 67 kts 14°
2026-04-22 07:02 -26.13507 28.23786 5559 ft 124 kts 15°
2026-04-22 07:02 -26.12539 28.24086 5547 ft 161 kts 15°
2026-04-22 07:02 -26.11394 28.24429 5664 ft 171 kts 12°
2026-04-22 07:02 -26.10273 28.24761 6057 ft 171 kts 13°
2026-04-22 07:03 -26.09102 28.25102 6489 ft 175 kts 13°
2026-04-22 07:03 -26.07921 28.25453 6993 ft 176 kts 14°
2026-04-22 07:03 -26.06726 28.25832 7441 ft 180 kts 13°
2026-04-22 07:03 -26.05506 28.26224 7851 ft 185 kts 15°
2026-04-22 07:04 -26.04278 28.26682 8247 ft 190 kts 26°
2026-04-22 07:04 -26.03200 28.27581 8601 ft 200 kts 46°
2026-04-22 07:04 -26.02461 28.28935 8753 ft 218 kts 72°
2026-04-22 07:04 -26.02320 28.30652 8899 ft 231 kts 99°
2026-04-22 07:05 -26.02852 28.32350 9155 ft 232 kts 115°
2026-04-22 07:05 -26.03458 28.33994 9781 ft 230 kts 113°
2026-04-22 07:05 -26.04017 28.35638 10461 ft 224 kts 112°
2026-04-22 07:05 -26.04566 28.37288 10827 ft 231 kts 112°
2026-04-22 07:06 -26.05134 28.38989 11175 ft 238 kts 113°
2026-04-22 07:06 -26.05737 28.40775 11414 ft 253 kts 113°
2026-04-22 07:06 -26.06352 28.42598 11682 ft 265 kts 112°
2026-04-22 07:06 -26.07020 28.44593 12015 ft 278 kts 112°
2026-04-22 07:07 -26.07711 28.46669 12181 ft 295 kts 112°
2026-04-22 07:07 -26.08448 28.48873 12332 ft 312 kts 112°
2026-04-22 07:07 -26.09218 28.51177 12653 ft 321 kts 112°
2026-04-22 07:07 -26.10002 28.53524 13092 ft 325 kts 112°
2026-04-22 07:08 -26.10799 28.55902 13444 ft 333 kts 114°
2026-04-22 07:08 -26.11906 28.58213 13612 ft 341 kts 129°
2026-04-22 07:08 -26.13481 28.60186 14061 ft 340 kts 141°
2026-04-22 07:08 -26.15230 28.61990 14450 ft 344 kts 140°
2026-04-22 07:09 -26.16953 28.63814 14849 ft 347 kts 140°
2026-04-22 07:09 -26.18713 28.65697 15218 ft 353 kts 140°
2026-04-22 07:09 -26.20482 28.67594 15646 ft 355 kts 139°
2026-04-22 07:09 -26.22290 28.69530 15804 ft 367 kts 139°
2026-04-22 07:10 -26.24168 28.71538 15918 ft 380 kts 139°
2026-04-22 07:10 -26.26108 28.73613 16088 ft 391 kts 139°
2026-04-22 07:10 -26.28075 28.75721 16463 ft 394 kts 139°
2026-04-22 07:10 -26.30059 28.77850 16856 ft 398 kts 139°
2026-04-22 07:11 -26.32063 28.80000 17255 ft 401 kts 139°
2026-04-22 07:11 -26.34258 28.82354 17685 ft 404 kts 139°
2026-04-22 07:11 -26.38636 28.87056 18518 ft 411 kts 139°
2026-04-22 07:11 -26.42815 28.91546 19048 ft 421 kts 138°
2026-04-22 07:12 -26.47049 28.96107 19693 ft 426 kts 138°
2026-04-22 07:12 -26.51325 29.00718 20392 ft 429 kts 138°
2026-04-22 07:12 -26.55653 29.05384 20993 ft 435 kts 137°
2026-04-22 07:12 -26.59993 29.10171 21608 ft 441 kts 137°
2026-04-22 07:13 -26.64389 29.15058 22064 ft 450 kts 136°
2026-04-22 07:13 -26.68862 29.20020 22667 ft 456 kts 136°
2026-04-22 07:13 -26.73402 29.25058 23233 ft 461 kts 136°
2026-04-22 07:13 -26.77954 29.30115 23859 ft 464 kts 136°
2026-04-22 07:14 -26.82565 29.35241 24344 ft 469 kts 136°
2026-04-22 07:14 -26.87190 29.40389 24671 ft 477 kts 136°
2026-04-22 07:14 -26.91882 29.45707 25139 ft 483 kts 131°
2026-04-22 07:14 -26.96097 29.51637 25594 ft 487 kts 129°
2026-04-22 07:15 -27.00340 29.57586 26189 ft 488 kts 129°
2026-04-22 07:15 -27.04611 29.63590 26527 ft 498 kts 129°
2026-04-22 07:15 -27.08952 29.69703 27059 ft 503 kts 129°
2026-04-22 07:15 -27.13343 29.75894 27610 ft 509 kts 129°
2026-04-22 07:16 -27.17784 29.82165 28168 ft 514 kts 129°
2026-04-22 07:16 -27.22242 29.88467 28793 ft 519 kts 129°
2026-04-22 07:16 -27.26786 29.94904 29326 ft 527 kts 129°
2026-04-22 07:16 -27.31321 30.01334 29906 ft 534 kts 129°
2026-04-22 07:17 -27.35956 30.07918 30490 ft 540 kts 128°
2026-04-22 07:17 -27.40635 30.14574 31151 ft 541 kts 128°
2026-04-22 07:17 -27.45340 30.21277 31545 ft 550 kts 128°
2026-04-22 07:17 -27.50090 30.28055 32140 ft 554 kts 128°
2026-04-22 07:18 -27.54888 30.34912 32661 ft 559 kts 127°
2026-04-22 07:18 -27.59702 30.41806 33223 ft 561 kts 127°
2026-04-22 07:18 -27.64479 30.48680 33833 ft 564 kts 127°
2026-04-22 07:18 -27.69413 30.55787 34334 ft 569 kts 127°
2026-04-22 07:19 -27.74240 30.62749 34757 ft 574 kts 127°
2026-04-22 07:19 -27.79191 30.69902 35144 ft 580 kts 127°
2026-04-22 07:19 -27.84141 30.77064 35134 ft 579 kts 127°
2026-04-22 07:20 -27.94062 30.91459 35153 ft 581 kts 127°
2026-04-22 07:20 -28.03908 31.05790 35091 ft 571 kts 127°
2026-04-22 07:21 -28.13750 31.20166 35127 ft 579 kts 126°
2026-04-22 07:21 -28.23610 31.34615 35132 ft 580 kts 126°
2026-04-22 07:22 -28.33456 31.49092 35136 ft 579 kts 126°
2026-04-22 07:22 -28.43305 31.63626 35130 ft 580 kts 126°
2026-04-22 07:23 -28.53070 31.78083 35134 ft 580 kts 126°
2026-04-22 07:23 -28.62896 31.92680 35139 ft 581 kts 126°
2026-04-22 07:24 -28.72362 32.06790 35169 ft 581 kts 126°
2026-04-22 07:24 -28.79462 32.19734 35136 ft 579 kts 118°
2026-04-22 07:25 -28.89045 32.38116 35171 ft 578 kts 118°
2026-04-22 07:25 -28.95868 32.51292 35121 ft 578 kts 118°
2026-04-22 07:26 -29.04035 32.67121 35130 ft 576 kts 118°
2026-04-22 07:26 -29.12166 32.82940 35103 ft 577 kts 118°
2026-04-22 07:27 -29.20225 32.98677 35119 ft 575 kts 118°
2026-04-22 07:27 -29.28300 33.14511 35098 ft 577 kts 118°
2026-04-22 07:28 -29.40370 33.38294 35112 ft 574 kts 118°
2026-04-22 07:28 -29.48360 33.54114 35090 ft 572 kts 117°
2026-04-22 07:29 -29.56335 33.69968 35083 ft 572 kts 117°
2026-04-22 07:29 -29.64243 33.85749 35099 ft 569 kts 117°
2026-04-22 07:30 -29.73065 34.00826 35105 ft 569 kts 131°
2026-04-22 07:30 -29.83538 34.14467 35093 ft 567 kts 131°
2026-04-22 07:31 -29.93926 34.28026 35126 ft 565 kts 131°
2026-04-22 07:31 -30.04330 34.41656 35040 ft 566 kts 130°
2026-04-22 07:32 -30.14699 34.55295 35105 ft 564 kts 131°
2026-04-22 07:32 -30.25049 34.68953 35063 ft 565 kts 130°
2026-04-22 07:33 -30.35377 34.82633 35113 ft 564 kts 131°
2026-04-22 07:33 -30.45698 34.96347 35077 ft 564 kts 130°
2026-04-22 07:34 -30.56006 35.10092 35066 ft 564 kts 130°
2026-04-22 07:34 -30.66251 35.23804 35061 ft 564 kts 130°
2026-04-22 07:35 -30.76455 35.37510 35080 ft 562 kts 131°
2026-04-22 07:35 -30.86678 35.51286 35018 ft 562 kts 130°
2026-04-22 07:36 -30.96840 35.65034 35055 ft 561 kts 130°
2026-04-22 07:36 -31.07007 35.78834 35038 ft 561 kts 130°
2026-04-22 07:37 -31.17209 35.92732 35075 ft 563 kts 130°
2026-04-22 07:37 -31.27386 36.06646 35062 ft 565 kts 130°
2026-04-22 07:38 -31.37574 36.20626 35073 ft 565 kts 130°
2026-04-22 07:38 -31.47733 36.34619 35074 ft 566 kts 130°
2026-04-22 07:39 -31.57948 36.48739 35058 ft 567 kts 130°
2026-04-22 07:39 -31.68096 36.62820 35048 ft 568 kts 129°
2026-04-22 07:40 -31.78310 36.77045 35064 ft 569 kts 129°
2026-04-22 07:40 -31.88539 36.91343 35055 ft 571 kts 129°
2026-04-22 07:41 -31.98801 37.05743 35042 ft 573 kts 129°
2026-04-22 07:41 -32.09051 37.20183 35063 ft 575 kts 128°
2026-04-22 07:42 -32.19284 37.34653 35039 ft 575 kts 128°
2026-04-22 07:42 -32.29542 37.49214 35020 ft 577 kts 128°
2026-04-22 07:43 -32.39754 37.63768 35030 ft 579 kts 128°
2026-04-22 07:43 -32.50035 37.78476 35044 ft 579 kts 128°
2026-04-22 07:44 -32.60237 37.93130 35036 ft 579 kts 128°
2026-04-22 07:44 -32.70501 38.07930 35031 ft 578 kts 128°
2026-04-22 07:45 -32.80697 38.22693 35057 ft 577 kts 128°
2026-04-22 07:45 -32.90839 38.37435 35024 ft 578 kts 128°
2026-04-22 07:46 -33.01023 38.52297 35003 ft 580 kts 128°
2026-04-22 07:46 -33.11246 38.67278 35001 ft 583 kts 128°
2026-04-22 07:47 -33.21452 38.82294 35067 ft 582 kts 128°
2026-04-22 07:47 -33.31656 38.97370 35050 ft 582 kts 128°
2026-04-22 07:48 -33.41796 39.12412 34993 ft 581 kts 127°
2026-04-22 07:48 -33.51891 39.27450 35002 ft 580 kts 127°
2026-04-22 07:49 -33.61922 39.42454 35001 ft 579 kts 128°
2026-04-22 07:49 -33.72028 39.57633 34997 ft 581 kts 127°
2026-04-22 07:50 -33.82130 39.72870 35006 ft 581 kts 127°
2026-04-22 07:50 -33.92167 39.88054 35036 ft 579 kts 127°
2026-04-22 07:51 -34.02129 40.03145 34962 ft 578 kts 128°
2026-04-22 07:51 -34.12363 40.17954 34997 ft 573 kts 129°
2026-04-22 07:52 -34.22555 40.32757 34998 ft 570 kts 129°
2026-04-22 07:52 -34.32678 40.47529 34954 ft 572 kts 128°
2026-04-22 07:53 -34.42783 40.62349 34958 ft 572 kts 128°
2026-04-22 07:53 -34.52865 40.77208 34948 ft 575 kts 128°
2026-04-22 07:54 -34.63057 40.92292 34971 ft 580 kts 128°
2026-04-22 07:54 -34.73317 41.07540 34995 ft 581 kts 127°
2026-04-22 07:55 -34.83528 41.22783 35011 ft 582 kts 127°
2026-04-22 07:55 -34.93772 41.38142 34997 ft 582 kts 127°
2026-04-22 07:56 -35.03924 41.53430 34962 ft 582 kts 127°
2026-04-22 07:56 -35.14075 41.68783 34974 ft 579 kts 127°
2026-04-22 07:57 -35.24163 41.84110 34935 ft 577 kts 127°
2026-04-22 07:57 -35.34168 41.99375 34903 ft 578 kts 128°
2026-04-22 07:58 -35.44189 42.14733 34954 ft 577 kts 128°
2026-04-22 07:58 -35.54250 42.30222 34966 ft 579 kts 128°
2026-04-22 07:59 -35.64259 42.45700 34984 ft 580 kts 128°
2026-04-22 07:59 -35.74282 42.61267 34949 ft 582 kts 128°
2026-04-22 08:00 -35.84294 42.76891 34938 ft 580 kts 128°
2026-04-22 08:00 -35.94288 42.92554 34920 ft 582 kts 127°
2026-04-22 08:01 -36.04331 43.08367 34939 ft 585 kts 127°
2026-04-22 08:01 -36.14354 43.24224 34946 ft 585 kts 127°
2026-04-22 08:02 -36.24289 43.40014 34939 ft 584 kts 127°
2026-04-22 08:02 -36.34210 43.55855 34939 ft 582 kts 127°
2026-04-22 08:03 -36.43651 43.70997 34931 ft 580 kts 127°
2026-04-22 08:03 -36.53503 43.86872 34916 ft 579 kts 127°
2026-04-22 08:04 -36.63320 44.02765 34915 ft 579 kts 127°
2026-04-22 08:04 -36.73060 44.18607 34921 ft 578 kts 127°
2026-04-22 08:05 -36.82820 44.34557 34921 ft 578 kts 127°
2026-04-22 08:05 -36.92610 44.50630 34919 ft 587 kts 127°
2026-04-22 08:06 -37.02499 44.66946 34920 ft 587 kts 127°
2026-04-22 08:06 -37.12298 44.83193 34919 ft 587 kts 127°
2026-04-22 08:07 -37.22110 44.99539 34924 ft 586 kts 127°
2026-04-22 08:07 -37.31917 45.15956 34919 ft 586 kts 127°
2026-04-22 08:08 -37.41700 45.32415 34921 ft 586 kts 127°
2026-04-22 08:08 -37.51422 45.48853 34913 ft 586 kts 127°
2026-04-22 08:09 -37.61062 45.65232 34918 ft 584 kts 127°
2026-04-22 08:09 -37.70723 45.81729 34908 ft 583 kts 127°
2026-04-22 08:10 -37.80348 45.98247 34907 ft 583 kts 126°
2026-04-22 08:10 -37.89965 46.14833 34902 ft 585 kts 127°
2026-04-22 08:11 -37.99578 46.31499 34903 ft 586 kts 127°
2026-04-22 08:11 -38.09183 46.48231 34913 ft 587 kts 127°
2026-04-22 08:12 -38.18738 46.64965 34917 ft 588 kts 127°
2026-04-22 08:12 -38.28328 46.81845 34908 ft 587 kts 127°
2026-04-22 08:13 -38.36241 46.95840 34913 ft 584 kts 127°
2026-04-22 08:13 -38.45707 47.12659 34898 ft 582 kts 127°
2026-04-22 08:14 -38.55121 47.29475 34891 ft 581 kts 127°
2026-04-22 08:14 -38.64513 47.46336 34897 ft 581 kts 127°
2026-04-22 08:15 -38.73853 47.63192 34891 ft 581 kts 127°
2026-04-22 08:15 -38.83154 47.80067 34898 ft 579 kts 127°
2026-04-22 08:16 -38.92426 47.96971 34893 ft 582 kts 126°
2026-04-22 08:16 -39.01718 48.14009 34888 ft 583 kts 126°
2026-04-22 08:17 -39.11001 48.31119 34887 ft 581 kts 126°
2026-04-22 08:17 -39.20183 48.48133 34859 ft 576 kts 127°
2026-04-22 08:18 -39.29324 48.65155 34886 ft 581 kts 126°
2026-04-22 08:18 -39.38535 48.82408 34890 ft 583 kts 126°
2026-04-22 08:19 -39.47708 48.99681 34877 ft 580 kts 127°
2026-04-22 08:19 -39.56809 49.16909 34856 ft 577 kts 126°
2026-04-22 08:20 -39.65787 49.34000 34861 ft 574 kts 127°
2026-04-22 08:20 -39.74736 49.51122 34849 ft 572 kts 127°
2026-04-22 08:21 -39.83667 49.68279 34872 ft 573 kts 127°
2026-04-22 08:21 -39.92599 49.85522 34901 ft 575 kts 126°
2026-04-22 08:22 -40.01600 50.02882 34877 ft 579 kts 131°
2026-04-22 08:22 -40.12621 50.18033 34924 ft 581 kts 137°
2026-04-22 08:23 -40.23632 50.33622 34937 ft 585 kts 136°
2026-04-22 08:23 -40.34624 50.49367 34945 ft 583 kts 136°
2026-04-22 08:24 -40.45510 50.65053 34936 ft 579 kts 136°
2026-04-22 08:24 -40.56329 50.80730 34890 ft 578 kts 136°
2026-04-22 08:25 -40.67094 50.96410 34888 ft 577 kts 136°
2026-04-22 08:25 -40.77853 51.12163 34899 ft 578 kts 135°
2026-04-22 08:26 -40.88541 51.27895 34904 ft 579 kts 135°
2026-04-22 08:26 -40.99308 51.43824 34872 ft 581 kts 135°
2026-04-22 08:27 -41.10109 51.59890 34894 ft 585 kts 135°
2026-04-22 08:27 -41.20969 51.76132 34927 ft 588 kts 135°
2026-04-22 08:28 -41.31806 51.92427 34931 ft 589 kts 135°
2026-04-22 08:28 -41.42626 52.08787 34926 ft 587 kts 135°
2026-04-22 08:29 -41.53355 52.25095 34912 ft 595 kts 135°
2026-04-22 08:29 -41.64350 52.41902 34914 ft 600 kts 135°
2026-04-22 08:30 -41.75316 52.58762 34911 ft 600 kts 135°
2026-04-22 08:30 -41.86262 52.75685 34912 ft 602 kts 135°
2026-04-22 08:31 -41.97205 52.92700 34926 ft 601 kts 135°
2026-04-22 08:32 -42.13578 53.18341 34902 ft 606 kts 135°
2026-04-22 08:32 -42.24594 53.35717 34930 ft 608 kts 135°
2026-04-22 08:33 -42.35499 53.53023 34918 ft 609 kts 135°
2026-04-22 08:33 -42.46466 53.70526 34922 ft 609 kts 135°
2026-04-22 08:34 -42.57398 53.88077 34906 ft 609 kts 135°
2026-04-22 08:34 -42.68320 54.05722 34915 ft 609 kts 135°
2026-04-22 08:35 -42.79198 54.23399 34919 ft 609 kts 135°
2026-04-22 08:35 -42.90058 54.41151 34928 ft 609 kts 135°
2026-04-22 08:36 -43.00896 54.58976 34910 ft 609 kts 135°
2026-04-22 08:36 -43.11655 54.76777 34915 ft 612 kts 135°
2026-04-22 08:37 -43.22496 54.94829 34941 ft 613 kts 135°
2026-04-22 08:37 -43.33292 55.12916 34950 ft 612 kts 135°
2026-04-22 08:38 -43.44058 55.31062 34934 ft 610 kts 135°
2026-04-22 08:38 -43.54690 55.49095 34919 ft 609 kts 135°
2026-04-22 08:39 -43.65374 55.67326 34899 ft 612 kts 135°
2026-04-22 08:39 -43.76074 55.85707 34940 ft 615 kts 135°
2026-04-22 08:40 -43.86821 56.04281 34964 ft 618 kts 135°
2026-04-22 08:40 -43.97539 56.22926 34975 ft 618 kts 135°
2026-04-22 08:41 -44.08219 56.41628 34977 ft 616 kts 135°
2026-04-22 08:41 -44.18765 56.60211 34984 ft 614 kts 135°
2026-04-22 08:42 -44.29346 56.78976 34963 ft 613 kts 135°
2026-04-22 08:42 -44.39852 56.97730 34979 ft 612 kts 135°
2026-04-22 08:43 -44.50288 57.16482 34988 ft 610 kts 136°
2026-04-22 08:43 -44.60695 57.35303 34980 ft 609 kts 135°
2026-04-22 08:44 -44.71005 57.54070 34980 ft 609 kts 135°
2026-04-22 08:44 -44.81335 57.73002 35003 ft 608 kts 135°
2026-04-22 08:45 -44.91598 57.91934 35016 ft 606 kts 135°
2026-04-22 08:45 -45.01791 58.10862 34993 ft 603 kts 135°
2026-04-22 08:46 -45.11914 58.29782 34979 ft 602 kts 135°
2026-04-22 08:46 -45.22008 58.48771 34996 ft 603 kts 135°
2026-04-22 08:47 -45.32003 58.67707 34993 ft 603 kts 134°
2026-04-22 08:47 -45.41995 58.86763 35025 ft 599 kts 134°
2026-04-22 08:48 -45.51929 59.05834 35015 ft 596 kts 134°
2026-04-22 08:48 -45.61754 59.24822 35003 ft 593 kts 134°
2026-04-22 08:49 -45.71488 59.43760 35045 ft 590 kts 134°
2026-04-22 08:49 -45.81124 59.62614 35035 ft 587 kts 133°
2026-04-22 08:50 -45.90729 59.81508 35013 ft 584 kts 133°
2026-04-22 08:50 -45.99848 60.00859 35013 ft 590 kts 122°
2026-04-22 08:51 -46.05740 60.23062 35027 ft 592 kts 113°
2026-04-22 08:51 -46.11330 60.45371 34997 ft 590 kts 113°
2026-04-22 08:52 -46.16817 60.67595 35020 ft 587 kts 112°
2026-04-22 08:52 -46.22237 60.89827 35048 ft 584 kts 112°
2026-04-22 08:53 -46.27546 61.11828 35023 ft 582 kts 112°
2026-04-22 08:53 -46.32840 61.33983 35020 ft 582 kts 112°
2026-04-22 08:54 -46.38105 61.56240 35023 ft 583 kts 111°
2026-04-22 08:54 -46.43273 61.78309 35055 ft 581 kts 111°
2026-04-22 08:55 -46.48426 62.00541 35061 ft 579 kts 111°
2026-04-22 08:55 -46.53506 62.22684 35049 ft 577 kts 111°
2026-04-22 08:56 -46.58532 62.44814 35046 ft 575 kts 110°
2026-04-22 08:56 -46.63510 62.66968 35049 ft 575 kts 110°
2026-04-22 08:57 -46.68426 62.89069 35056 ft 574 kts 110°
2026-04-22 08:57 -46.73282 63.11134 35090 ft 574 kts 110°
2026-04-22 08:58 -46.78110 63.33307 35072 ft 572 kts 109°
2026-04-22 08:58 -46.82879 63.55439 35549 ft 571 kts 109°
2026-04-22 08:58 -46.85250 63.66534 36317 ft 569 kts 110°
2026-04-22 08:59 -46.86802 63.73829 36771 ft 569 kts 110°
2026-04-22 08:59 -46.89164 63.84937 37074 ft 567 kts 110°
2026-04-22 08:59 -46.91465 63.95885 37076 ft 565 kts 110°
2026-04-22 09:00 -46.96813 64.21527 37089 ft 565 kts 109°
2026-04-22 09:00 -47.00586 64.39800 37079 ft 563 kts 109°
2026-04-22 09:01 -47.05075 64.61761 37076 ft 562 kts 109°
2026-04-22 09:01 -47.09526 64.83777 37077 ft 562 kts 109°
2026-04-22 09:02 -47.13928 65.05797 37090 ft 563 kts 108°
2026-04-22 09:02 -47.18311 65.27969 37102 ft 564 kts 108°
2026-04-22 09:03 -47.22620 65.50023 37115 ft 564 kts 108°
2026-04-22 09:03 -47.26917 65.72267 37114 ft 563 kts 108°
2026-04-22 09:04 -47.31147 65.94423 37110 ft 561 kts 108°
2026-04-22 09:04 -47.35310 66.16481 37115 ft 560 kts 107°
2026-04-22 09:05 -47.39441 66.38632 37107 ft 559 kts 107°
2026-04-22 09:05 -47.43531 66.60825 37098 ft 559 kts 107°
2026-04-22 09:06 -47.47576 66.83042 37099 ft 559 kts 107°
2026-04-22 09:06 -47.51542 67.05097 37108 ft 559 kts 107°
2026-04-22 09:07 -47.55511 67.27435 37112 ft 559 kts 107°
2026-04-22 09:07 -47.59426 67.49749 37116 ft 559 kts 107°
2026-04-22 09:08 -47.63291 67.72057 37123 ft 559 kts 106°
2026-04-22 09:08 -47.67114 67.94406 37120 ft 559 kts 106°
2026-04-22 09:09 -47.70876 68.16679 37112 ft 559 kts 106°
2026-04-22 09:09 -47.74611 68.39087 37107 ft 558 kts 106°
2026-04-22 09:10 -47.78310 68.61572 37110 ft 559 kts 106°
2026-04-22 09:10 -47.81955 68.84025 37110 ft 559 kts 105°
2026-04-22 09:11 -47.85564 69.06557 37104 ft 559 kts 105°
2026-04-22 09:11 -47.89110 69.29008 37116 ft 559 kts 105°
2026-04-22 09:12 -47.92629 69.51589 37110 ft 559 kts 105°
2026-04-22 09:12 -47.96114 69.74182 37105 ft 558 kts 105°
2026-04-22 09:13 -47.99557 69.96754 37096 ft 557 kts 105°
2026-04-22 09:13 -48.04468 70.18387 37097 ft 551 kts 116°
2026-04-22 09:14 -48.09968 70.39824 37086 ft 553 kts 114°
2026-04-22 09:14 -48.15323 70.61435 37090 ft 553 kts 114°
2026-04-22 09:15 -48.20628 70.83108 37090 ft 553 kts 114°
2026-04-22 09:15 -48.25873 71.04753 37088 ft 553 kts 114°
2026-04-22 09:16 -48.31089 71.26493 37090 ft 553 kts 114°
2026-04-22 09:16 -48.36255 71.48235 37076 ft 553 kts 114°
2026-04-22 09:17 -48.41403 71.70124 37076 ft 552 kts 113°
2026-04-22 09:17 -48.46460 71.91841 37082 ft 552 kts 113°
2026-04-22 09:18 -48.51494 72.13680 37076 ft 551 kts 113°
2026-04-22 09:18 -48.56479 72.35526 37072 ft 551 kts 113°
2026-04-22 09:19 -48.61454 72.57557 37079 ft 551 kts 113°
2026-04-22 09:19 -48.66332 72.79383 37073 ft 551 kts 113°
2026-04-22 09:20 -48.71209 73.01436 37083 ft 551 kts 112°
2026-04-22 09:20 -48.76025 73.23447 37085 ft 550 kts 112°
2026-04-22 09:21 -48.80781 73.45414 37068 ft 550 kts 112°
2026-04-22 09:21 -48.85495 73.67421 37065 ft 550 kts 112°
2026-04-22 09:22 -48.90189 73.89572 37054 ft 549 kts 112°
2026-04-22 09:22 -48.94814 74.11642 37044 ft 549 kts 112°
2026-04-22 09:23 -48.99422 74.33874 37046 ft 549 kts 111°
2026-04-22 09:23 -49.03975 74.56086 37046 ft 549 kts 111°
2026-04-22 09:24 -49.08469 74.78256 37040 ft 548 kts 111°
2026-04-22 09:24 -49.12921 75.00471 37038 ft 548 kts 111°
2026-04-22 09:25 -49.17328 75.22711 37028 ft 548 kts 111°
2026-04-22 09:25 -49.21693 75.44998 37029 ft 547 kts 111°
2026-04-22 09:26 -49.26009 75.67289 37034 ft 547 kts 110°
2026-04-22 09:26 -49.30316 75.89803 37010 ft 547 kts 110°
2026-04-22 09:27 -49.34529 76.12085 37010 ft 548 kts 110°
2026-04-22 09:27 -49.38729 76.34566 37012 ft 548 kts 110°
2026-04-22 09:28 -49.42884 76.57080 37015 ft 548 kts 110°
2026-04-22 09:28 -49.46998 76.79648 36993 ft 547 kts 110°
2026-04-22 09:29 -49.51061 77.02211 36980 ft 547 kts 110°
2026-04-22 09:29 -49.55059 77.24689 36978 ft 547 kts 109°
2026-04-22 09:30 -49.59036 77.47344 36981 ft 548 kts 109°
2026-04-22 09:30 -49.62968 77.70021 36970 ft 548 kts 109°
2026-04-22 09:31 -49.66865 77.92799 36968 ft 549 kts 109°
2026-04-22 09:31 -49.70719 78.15617 36960 ft 549 kts 109°
2026-04-22 09:32 -49.74539 78.38539 36948 ft 549 kts 109°
2026-04-22 09:32 -49.78281 78.61293 36943 ft 549 kts 109°
2026-04-22 09:33 -49.82003 78.84242 36943 ft 549 kts 109°
2026-04-22 09:33 -49.85679 79.07215 36957 ft 549 kts 108°
2026-04-22 09:34 -49.89314 79.30259 36921 ft 550 kts 108°
2026-04-22 09:34 -49.92907 79.53353 36920 ft 551 kts 108°
2026-04-22 09:35 -49.98246 79.88109 36907 ft 551 kts 108°
2026-04-22 09:35 -50.00479 80.11709 36889 ft 558 kts 96°
2026-04-22 09:36 -50.01453 80.35669 36875 ft 556 kts 97°
2026-04-22 09:36 -50.02420 80.59720 36871 ft 557 kts 97°
2026-04-22 09:37 -50.03308 80.83723 36871 ft 558 kts 97°
2026-04-22 09:37 -50.04150 81.07937 36865 ft 559 kts 97°
2026-04-22 09:38 -50.04935 81.31936 36861 ft 559 kts 96°
2026-04-22 09:38 -50.05679 81.56216 36852 ft 559 kts 96°
2026-04-22 09:39 -50.06364 81.80249 36837 ft 559 kts 96°
2026-04-22 09:39 -50.07004 82.04422 36831 ft 559 kts 96°
2026-04-22 09:40 -50.07595 82.28695 36826 ft 559 kts 96°
2026-04-22 09:40 -50.08131 82.52752 36815 ft 559 kts 96°
2026-04-22 09:41 -50.08621 82.76976 36802 ft 559 kts 96°
2026-04-22 09:41 -50.09060 83.01236 36795 ft 559 kts 96°
2026-04-22 09:42 -50.09446 83.25285 36786 ft 560 kts 95°
2026-04-22 09:42 -50.09785 83.49521 36780 ft 560 kts 95°
2026-04-22 09:43 -50.10073 83.73809 36768 ft 561 kts 95°
2026-04-22 09:43 -50.10311 83.98046 36752 ft 560 kts 95°
2026-04-22 09:44 -50.10498 84.22388 36749 ft 561 kts 95°
2026-04-22 09:44 -50.10635 84.46745 36744 ft 561 kts 95°
2026-04-22 09:45 -50.10721 84.71049 36724 ft 561 kts 94°
2026-04-22 09:45 -50.10756 84.95320 36715 ft 561 kts 94°
2026-04-22 09:46 -50.10740 85.19741 36703 ft 563 kts 94°
2026-04-22 09:46 -50.10674 85.43968 36720 ft 563 kts 94°
2026-04-22 09:47 -50.10556 85.68361 36688 ft 564 kts 94°
2026-04-22 09:47 -50.10387 85.92795 36689 ft 565 kts 93°
2026-04-22 09:48 -50.10167 86.17218 36676 ft 565 kts 93°
2026-04-22 09:48 -50.09895 86.41682 36659 ft 566 kts 92°
2026-04-22 09:49 -50.09627 86.62133 36656 ft 566 kts 92°
2026-04-22 09:49 -50.09260 86.86673 36646 ft 567 kts 92°
2026-04-22 09:50 -50.08838 87.11314 36630 ft 567 kts 92°
2026-04-22 09:50 -50.08368 87.35787 36623 ft 568 kts 92°
2026-04-22 09:51 -50.07842 87.60453 36615 ft 568 kts 92°
2026-04-22 09:51 -50.07266 87.85008 36599 ft 569 kts 91°
2026-04-22 09:52 -50.06639 88.09548 36581 ft 569 kts 91°
2026-04-22 09:52 -50.05959 88.34118 36581 ft 569 kts 91°
2026-04-22 09:53 -50.05224 88.58787 36566 ft 569 kts 91°
2026-04-22 09:53 -50.04437 88.83425 36571 ft 570 kts 90°
2026-04-22 09:54 -50.03603 89.07930 36560 ft 570 kts 90°
2026-04-22 09:54 -50.02710 89.32611 36547 ft 570 kts 90°
2026-04-22 09:55 -50.01767 89.57239 36548 ft 571 kts 90°
2026-04-22 09:55 -50.00789 89.81909 36512 ft 571 kts 90°
2026-04-22 09:56 -49.99940 90.06397 36514 ft 567 kts 97°
2026-04-22 09:56 -50.01237 90.30793 36508 ft 566 kts 98°
2026-04-22 09:57 -50.02246 90.55231 36494 ft 566 kts 98°
2026-04-22 09:57 -50.03162 90.79688 36490 ft 567 kts 97°
2026-04-22 09:58 -50.04023 91.04199 36492 ft 566 kts 97°
2026-04-22 09:58 -50.04824 91.28493 36470 ft 565 kts 97°
2026-04-22 09:59 -50.05579 91.52907 36455 ft 564 kts 97°
2026-04-22 09:59 -50.06281 91.77263 36437 ft 563 kts 97°
2026-04-22 10:00 -50.06930 92.01572 36438 ft 561 kts 96°
2026-04-22 10:00 -50.07527 92.25799 36420 ft 560 kts 96°
2026-04-22 10:01 -50.08073 92.50028 36417 ft 558 kts 96°
2026-04-22 10:01 -50.08567 92.74190 36405 ft 558 kts 96°
2026-04-22 10:02 -50.09011 92.98378 36400 ft 557 kts 95°
2026-04-22 10:02 -50.09402 93.22334 36408 ft 556 kts 95°
2026-04-22 10:03 -50.09746 93.46497 36389 ft 557 kts 94°
2026-04-22 10:03 -50.10038 93.70579 36359 ft 557 kts 94°
2026-04-22 10:04 -50.10282 93.94790 36369 ft 558 kts 94°
2026-04-22 10:04 -50.10476 94.18909 36363 ft 559 kts 93°
2026-04-22 10:05 -50.10618 94.43062 36353 ft 559 kts 93°
2026-04-22 10:05 -50.10711 94.67183 36373 ft 557 kts 93°
2026-04-22 10:06 -50.10754 94.91356 36348 ft 554 kts 92°
2026-04-22 10:06 -50.10747 95.15212 36321 ft 553 kts 92°
2026-04-22 10:07 -50.10691 95.39241 36319 ft 553 kts 92°
2026-04-22 10:07 -50.10586 95.63208 36310 ft 554 kts 92°
2026-04-22 10:08 -50.10431 95.87100 36318 ft 555 kts 91°
2026-04-22 10:08 -50.10227 96.11142 36332 ft 555 kts 91°
2026-04-22 10:09 -50.09972 96.35168 36323 ft 554 kts 91°
2026-04-22 10:09 -50.09670 96.59107 36327 ft 552 kts 91°
2026-04-22 10:10 -50.09319 96.82958 36322 ft 551 kts 91°
2026-04-22 10:10 -50.08920 97.06772 36334 ft 550 kts 90°
2026-04-22 10:11 -50.08472 97.30597 36330 ft 549 kts 90°
2026-04-22 10:11 -50.07977 97.54345 36348 ft 549 kts 90°
2026-04-22 10:12 -50.07436 97.78007 36342 ft 549 kts 90°
2026-04-22 10:12 -50.06845 98.01730 36349 ft 548 kts 90°
2026-04-22 10:13 -50.06206 98.25412 36371 ft 548 kts 89°
2026-04-22 10:13 -50.05518 98.49110 36375 ft 547 kts 89°
2026-04-22 10:14 -50.04784 98.72757 36381 ft 546 kts 89°
2026-04-22 10:14 -50.04007 98.96247 36380 ft 546 kts 89°
2026-04-22 10:15 -50.03178 99.19842 36376 ft 545 kts 89°
2026-04-22 10:15 -50.02302 99.43438 36391 ft 548 kts 89°
2026-04-22 10:16 -50.01379 99.67119 36409 ft 549 kts 89°
2026-04-22 10:16 -50.00424 99.90825 36424 ft 548 kts 88°
2026-04-22 10:17 -50.00369 100.14393 36408 ft 542 kts 98°
2026-04-22 10:17 -50.01539 100.37575 36405 ft 542 kts 97°
2026-04-22 10:18 -50.02471 100.61046 36407 ft 542 kts 96°
2026-04-22 10:18 -50.03333 100.84427 36416 ft 543 kts 96°
2026-04-22 10:19 -50.04150 101.07938 36425 ft 544 kts 96°
2026-04-22 10:19 -50.04915 101.31303 36429 ft 544 kts 96°
2026-04-22 10:20 -50.05637 101.54854 36444 ft 544 kts 96°
2026-04-22 10:20 -50.06312 101.78395 36438 ft 544 kts 95°
2026-04-22 10:21 -50.06936 102.01802 36440 ft 544 kts 95°
2026-04-22 10:21 -50.07515 102.25324 36434 ft 544 kts 95°
2026-04-22 10:22 -50.08047 102.48854 36431 ft 544 kts 95°
2026-04-22 10:22 -50.08533 102.72464 36443 ft 545 kts 95°
2026-04-22 10:23 -50.08971 102.96156 36435 ft 546 kts 95°
2026-04-22 10:23 -50.09360 103.19684 36440 ft 547 kts 95°
2026-04-22 10:24 -50.09703 103.43406 36460 ft 547 kts 95°
2026-04-22 10:24 -50.09998 103.67074 36441 ft 546 kts 95°
2026-04-22 10:25 -50.10243 103.90761 36475 ft 547 kts 95°
2026-04-22 10:25 -50.10349 104.02581 37271 ft 545 kts 95°
2026-04-22 10:25 -50.10442 104.14389 38056 ft 544 kts 95°
2026-04-22 10:26 -50.10531 104.26208 38417 ft 544 kts 95°
2026-04-22 10:26 -50.10596 104.37929 38427 ft 540 kts 95°
2026-04-22 10:26 -50.10692 104.61203 38429 ft 541 kts 95°
2026-04-22 10:27 -50.10746 104.84706 38446 ft 541 kts 95°
2026-04-22 10:27 -50.10753 105.08165 38429 ft 539 kts 94°
2026-04-22 10:28 -50.10714 105.31389 38426 ft 539 kts 94°
2026-04-22 10:28 -50.10627 105.54717 38418 ft 537 kts 94°
2026-04-22 10:29 -50.10495 105.77979 38406 ft 538 kts 94°
2026-04-22 10:29 -50.10315 106.01308 38407 ft 539 kts 93°
2026-04-22 10:30 -50.10088 106.24683 38411 ft 540 kts 93°
2026-04-22 10:30 -50.09815 106.48004 38413 ft 542 kts 93°
2026-04-22 10:31 -50.09490 106.71659 38423 ft 543 kts 92°
2026-04-22 10:31 -50.09122 106.95034 38424 ft 543 kts 92°
2026-04-22 10:32 -50.08703 107.18585 38417 ft 542 kts 92°
2026-04-22 10:32 -50.08239 107.42011 38403 ft 541 kts 92°
2026-04-22 10:33 -50.07729 107.65414 38405 ft 540 kts 91°
2026-04-22 10:33 -50.07173 107.88756 38395 ft 539 kts 91°
2026-04-22 10:34 -50.06571 108.12056 38404 ft 539 kts 91°
2026-04-22 10:34 -50.06035 108.31427 38397 ft 539 kts 91°
2026-04-22 10:35 -50.05230 108.58568 38403 ft 540 kts 90°
2026-04-22 10:35 -50.04487 108.81876 38395 ft 539 kts 90°
2026-04-22 10:36 -50.03697 109.05197 38395 ft 539 kts 90°
2026-04-22 10:36 -50.03007 109.24526 38371 ft 539 kts 90°
2026-04-22 10:37 -50.01679 109.59478 38395 ft 539 kts 89°
2026-04-22 10:38 -50.00753 109.82769 38386 ft 539 kts 89°
2026-04-22 10:38 -49.99085 110.05959 38374 ft 542 kts 80°
2026-04-22 10:39 -49.95600 110.28771 38372 ft 542 kts 78°
2026-04-22 10:39 -49.92131 110.51549 38382 ft 542 kts 77°
2026-04-22 10:40 -49.88610 110.74192 38378 ft 542 kts 77°
2026-04-22 10:40 -49.85020 110.96890 38378 ft 542 kts 77°
2026-04-22 10:41 -49.81384 111.19557 38376 ft 541 kts 76°
2026-04-22 10:41 -49.77704 111.42197 38376 ft 541 kts 76°
2026-04-22 10:42 -49.73989 111.64742 38371 ft 542 kts 76°
2026-04-22 10:42 -49.70244 111.87171 38381 ft 541 kts 75°
2026-04-22 10:43 -49.66433 112.09701 38372 ft 541 kts 75°
2026-04-22 10:43 -49.62582 112.32180 38370 ft 541 kts 75°
2026-04-22 10:44 -49.58689 112.54608 38357 ft 539 kts 74°
2026-04-22 10:44 -49.54791 112.76783 38352 ft 538 kts 73°
2026-04-22 10:45 -49.50837 112.99004 38328 ft 538 kts 73°
2026-04-22 10:45 -49.46827 113.21261 38333 ft 538 kts 73°
2026-04-22 10:46 -49.42816 113.43254 38334 ft 538 kts 73°
2026-04-22 10:46 -49.38723 113.65426 38335 ft 539 kts 73°
2026-04-22 10:47 -49.34595 113.87528 38337 ft 539 kts 72°
2026-04-22 10:47 -49.30442 114.09497 38334 ft 539 kts 72°
2026-04-22 10:48 -49.26226 114.31545 38331 ft 538 kts 72°
2026-04-22 10:48 -49.21968 114.53552 38312 ft 538 kts 71°
2026-04-22 10:49 -49.17677 114.75484 38321 ft 538 kts 71°
2026-04-22 10:49 -49.13346 114.97359 38317 ft 538 kts 71°
2026-04-22 10:50 -49.08972 115.19213 38313 ft 537 kts 70°
2026-04-22 10:50 -49.04569 115.40961 38302 ft 537 kts 70°
2026-04-22 10:51 -49.00151 115.62554 38302 ft 537 kts 70°
2026-04-22 10:51 -48.95672 115.84202 38303 ft 537 kts 69°
2026-04-22 10:52 -48.91147 116.05838 38299 ft 536 kts 69°
2026-04-22 10:52 -48.86605 116.27326 38302 ft 536 kts 69°
2026-04-22 10:53 -48.81997 116.48898 38319 ft 535 kts 68°
2026-04-22 10:53 -48.77393 116.70227 38296 ft 535 kts 68°
2026-04-22 10:54 -48.72718 116.91655 38310 ft 535 kts 67°
2026-04-22 10:54 -48.68000 117.13068 38322 ft 535 kts 67°
2026-04-22 10:55 -48.63237 117.34454 38324 ft 535 kts 66°
2026-04-22 10:55 -48.58479 117.55610 38337 ft 535 kts 66°
2026-04-22 10:56 -48.53641 117.76904 38338 ft 535 kts 66°
2026-04-22 10:56 -48.48782 117.98084 38338 ft 534 kts 66°
2026-04-22 10:57 -48.43878 118.19241 38354 ft 534 kts 65°
2026-04-22 10:57 -48.38962 118.40251 38356 ft 534 kts 65°
2026-04-22 10:58 -48.33967 118.61387 38361 ft 534 kts 65°
2026-04-22 10:58 -48.28950 118.82415 38375 ft 534 kts 64°
2026-04-22 10:59 -48.23890 119.03418 38351 ft 535 kts 64°
2026-04-22 10:59 -48.18823 119.24256 38394 ft 536 kts 64°
2026-04-22 11:00 -48.13661 119.45283 38381 ft 537 kts 64°
2026-04-22 11:00 -48.08461 119.66284 38395 ft 539 kts 63°
2026-04-22 11:01 -48.03219 119.87329 38408 ft 539 kts 63°
2026-04-22 11:01 -47.97462 120.07746 38424 ft 531 kts 56°
2026-04-22 11:02 -47.90816 120.27532 38425 ft 532 kts 56°
2026-04-22 11:02 -47.84222 120.47292 38445 ft 532 kts 56°
2026-04-22 11:03 -47.77629 120.66871 38441 ft 531 kts 56°
2026-04-22 11:03 -47.70960 120.86480 38451 ft 531 kts 56°
2026-04-22 11:04 -47.64295 121.05928 38481 ft 530 kts 55°
2026-04-22 11:04 -47.57567 121.25411 38485 ft 530 kts 55°
2026-04-22 11:05 -47.50856 121.44702 38493 ft 529 kts 54°
2026-04-22 11:05 -47.44073 121.64061 38491 ft 528 kts 54°
2026-04-22 11:06 -47.37255 121.83370 38510 ft 529 kts 54°
2026-04-22 11:06 -47.30461 122.02474 38515 ft 530 kts 53°
2026-04-22 11:07 -47.23587 122.21663 38531 ft 530 kts 53°
2026-04-22 11:07 -47.16678 122.40813 38537 ft 531 kts 53°
2026-04-22 11:08 -47.09668 122.60103 38546 ft 531 kts 52°
2026-04-22 11:08 -47.02722 122.79077 38555 ft 532 kts 52°
2026-04-22 11:09 -46.95684 122.98170 38549 ft 531 kts 52°
2026-04-22 11:09 -46.88661 123.17082 38568 ft 532 kts 52°
2026-04-22 11:10 -46.81533 123.36144 38572 ft 532 kts 51°
2026-04-22 11:10 -46.74425 123.55017 38579 ft 533 kts 51°
2026-04-22 11:11 -46.67245 123.73950 38614 ft 533 kts 51°
2026-04-22 11:11 -46.60065 123.92756 38612 ft 533 kts 50°
2026-04-22 11:12 -46.52776 124.11706 38638 ft 535 kts 50°
2026-04-22 11:12 -46.45525 124.30431 38641 ft 535 kts 50°
2026-04-22 11:13 -46.38184 124.49258 38660 ft 536 kts 50°
2026-04-22 11:13 -46.30802 124.68062 38677 ft 537 kts 50°
2026-04-22 11:14 -46.23402 124.86784 38682 ft 536 kts 50°
2026-04-22 11:14 -46.16010 125.05355 38709 ft 536 kts 50°
2026-04-22 11:15 -46.08543 125.23988 38715 ft 537 kts 50°
2026-04-22 11:15 -46.01023 125.42629 38738 ft 538 kts 50°
2026-04-22 11:16 -45.93470 125.61228 38761 ft 539 kts 50°
2026-04-22 11:16 -45.85876 125.79801 38773 ft 538 kts 50°
2026-04-22 11:17 -45.78304 125.98197 38795 ft 538 kts 50°
2026-04-22 11:17 -45.70680 126.16598 38788 ft 538 kts 50°
2026-04-22 11:18 -45.64323 126.31848 38822 ft 538 kts 50°
2026-04-22 11:18 -45.60484 126.41018 38814 ft 537 kts 50°
2026-04-22 11:19 -45.56659 126.50125 38828 ft 537 kts 50°
2026-04-22 11:19 -45.52806 126.59266 38838 ft 537 kts 50°
2026-04-22 11:20 -45.48936 126.68421 38837 ft 537 kts 50°
2026-04-22 11:20 -45.45068 126.77539 38845 ft 537 kts 50°
2026-04-22 11:21 -45.41212 126.86600 38864 ft 538 kts 49°
2026-04-22 11:21 -45.37322 126.95711 38839 ft 538 kts 49°
2026-04-22 11:22 -45.33431 127.04797 38880 ft 538 kts 50°
2026-04-22 11:22 -45.29529 127.13878 38890 ft 539 kts 49°
2026-04-22 11:23 -45.25637 127.22906 38890 ft 539 kts 49°
2026-04-22 11:23 -45.21710 127.31987 38884 ft 538 kts 50°
2026-04-22 11:24 -45.17787 127.41029 38890 ft 539 kts 49°
2026-04-22 11:24 -45.14517 127.48545 38901 ft 539 kts 49°
2026-04-22 11:25 -45.09926 127.59063 38906 ft 539 kts 49°
2026-04-22 11:25 -45.06639 127.66570 38914 ft 539 kts 49°
2026-04-22 11:26 -45.02674 127.75598 38922 ft 539 kts 49°
2026-04-22 11:26 -44.98711 127.84593 38905 ft 538 kts 49°
2026-04-22 11:27 -44.94745 127.93568 38922 ft 538 kts 49°
2026-04-22 11:27 -44.90787 128.02495 38932 ft 538 kts 49°
2026-04-22 11:28 -44.86794 128.11471 38911 ft 538 kts 49°
2026-04-22 11:28 -44.82827 128.20364 38946 ft 538 kts 49°
2026-04-22 11:29 -44.78830 128.29294 38961 ft 539 kts 49°
2026-04-22 11:29 -44.74837 128.38188 38965 ft 539 kts 49°
2026-04-22 11:30 -44.70816 128.47117 38969 ft 539 kts 49°
2026-04-22 11:30 -44.66795 128.56019 38977 ft 540 kts 49°
2026-04-22 11:31 -44.62780 128.64880 38988 ft 540 kts 49°
2026-04-22 11:31 -44.58737 128.73775 38994 ft 540 kts 49°
2026-04-22 11:32 -44.54701 128.82627 39002 ft 540 kts 49°
2026-04-22 11:32 -44.50645 128.91495 39006 ft 540 kts 49°
2026-04-22 11:33 -44.46597 129.00317 39006 ft 540 kts 49°
2026-04-22 11:33 -44.42521 129.09176 39019 ft 540 kts 49°
2026-04-22 11:34 -44.38461 129.17970 39032 ft 540 kts 49°
2026-04-22 11:34 -44.34363 129.26821 39023 ft 539 kts 50°
2026-04-22 11:35 -44.30297 129.35576 39038 ft 540 kts 49°
2026-04-22 11:35 -44.26202 129.44367 39041 ft 540 kts 49°
2026-04-22 11:36 -44.22111 129.53123 39051 ft 540 kts 50°
2026-04-22 11:36 -44.17993 129.61914 39062 ft 540 kts 50°
2026-04-22 11:37 -44.13891 129.70655 39062 ft 540 kts 50°
2026-04-22 11:37 -44.09785 129.79383 39048 ft 540 kts 50°
2026-04-22 11:38 -44.05660 129.88125 39073 ft 540 kts 50°
2026-04-22 11:38 -43.99473 130.01193 39081 ft 540 kts 50°
2026-04-22 11:39 -43.96111 130.10601 39079 ft 550 kts 62°
2026-04-22 11:39 -43.93067 130.20376 39082 ft 549 kts 60°
2026-04-22 11:40 -43.89916 130.29963 39094 ft 549 kts 59°
2026-04-22 11:40 -43.86674 130.39597 39098 ft 549 kts 59°
2026-04-22 11:41 -43.83431 130.49184 39108 ft 549 kts 59°
2026-04-22 11:41 -43.80190 130.58734 39114 ft 549 kts 59°
2026-04-22 11:42 -43.76927 130.68299 39110 ft 549 kts 59°
2026-04-22 11:42 -43.73672 130.77801 39118 ft 549 kts 59°
2026-04-22 11:43 -43.70402 130.87310 39123 ft 548 kts 59°
2026-04-22 11:43 -43.67098 130.96884 39107 ft 548 kts 59°
2026-04-22 11:44 -43.63827 131.06331 39128 ft 548 kts 59°
2026-04-22 11:44 -43.60514 131.15863 39137 ft 548 kts 59°
2026-04-22 11:45 -43.57220 131.25309 39136 ft 548 kts 59°
2026-04-22 11:45 -43.53914 131.34757 39139 ft 548 kts 59°
2026-04-22 11:46 -43.50592 131.44217 39155 ft 548 kts 59°
2026-04-22 11:46 -43.47270 131.53646 39155 ft 549 kts 59°
2026-04-22 11:47 -43.43931 131.63091 39164 ft 549 kts 59°
2026-04-22 11:47 -43.40580 131.72536 39168 ft 549 kts 59°
2026-04-22 11:48 -43.37224 131.81965 39171 ft 549 kts 59°
2026-04-22 11:48 -43.33851 131.91405 39180 ft 549 kts 59°
2026-04-22 11:49 -43.30477 132.00818 39183 ft 549 kts 59°
2026-04-22 11:49 -43.27108 132.10188 39192 ft 549 kts 59°
2026-04-22 11:50 -43.23719 132.19580 39191 ft 548 kts 59°
2026-04-22 11:50 -43.20334 132.28930 39196 ft 548 kts 59°
2026-04-22 11:51 -43.16943 132.38264 39200 ft 548 kts 59°
2026-04-22 11:51 -43.13520 132.47655 39207 ft 548 kts 59°
2026-04-22 11:52 -43.10122 132.56944 39214 ft 547 kts 59°
2026-04-22 11:52 -43.06723 132.66209 39213 ft 547 kts 59°
2026-04-22 11:53 -43.03293 132.75525 39199 ft 547 kts 59°
2026-04-22 11:53 -42.99861 132.84814 39219 ft 547 kts 59°
2026-04-22 11:54 -42.96421 132.94098 39225 ft 547 kts 59°
2026-04-22 11:54 -42.92979 133.03355 39224 ft 548 kts 59°
2026-04-22 11:55 -42.89537 133.12581 39233 ft 548 kts 59°
2026-04-22 11:55 -42.86063 133.21864 39234 ft 548 kts 59°
2026-04-22 11:56 -42.82607 133.31068 39242 ft 548 kts 59°
2026-04-22 11:56 -42.79110 133.40351 39248 ft 548 kts 59°
2026-04-22 11:57 -42.75639 133.49535 39254 ft 548 kts 59°
2026-04-22 11:57 -42.72156 133.58721 39252 ft 547 kts 59°
2026-04-22 11:58 -42.68660 133.67909 39264 ft 547 kts 59°
2026-04-22 11:58 -42.65142 133.77129 39272 ft 547 kts 59°
2026-04-22 11:59 -42.61633 133.86293 39271 ft 547 kts 59°
2026-04-22 11:59 -42.58123 133.95432 39259 ft 546 kts 59°
2026-04-22 12:00 -42.54611 134.04546 39275 ft 546 kts 59°
2026-04-22 12:00 -42.51079 134.13684 39274 ft 546 kts 59°
2026-04-22 12:01 -42.47550 134.22782 39272 ft 546 kts 59°
2026-04-22 12:01 -42.44014 134.31874 39282 ft 546 kts 59°
2026-04-22 12:02 -42.40470 134.40956 39288 ft 547 kts 59°
2026-04-22 12:02 -42.36894 134.50088 39292 ft 546 kts 59°
2026-04-22 12:03 -42.33339 134.59142 39295 ft 546 kts 59°
2026-04-22 12:03 -42.29773 134.68195 39296 ft 546 kts 59°
2026-04-22 12:04 -42.26203 134.77228 39300 ft 546 kts 59°
2026-04-22 12:04 -42.22605 134.86304 39308 ft 546 kts 59°
2026-04-22 12:05 -42.19036 134.95280 39308 ft 546 kts 59°
2026-04-22 12:05 -42.15430 135.04320 39310 ft 546 kts 59°
2026-04-22 12:06 -42.11836 135.13302 39308 ft 546 kts 59°
2026-04-22 12:06 -42.08229 135.22289 39318 ft 545 kts 59°
2026-04-22 12:07 -42.04606 135.31287 39314 ft 546 kts 59°
2026-04-22 12:07 -42.01008 135.40199 39317 ft 546 kts 59°
2026-04-22 12:08 -41.97356 135.49214 39318 ft 546 kts 59°
2026-04-22 12:08 -41.93728 135.58142 39326 ft 546 kts 59°
2026-04-22 12:09 -41.90085 135.67083 39329 ft 546 kts 59°
2026-04-22 12:09 -41.86452 135.75971 39337 ft 545 kts 59°
2026-04-22 12:10 -41.82787 135.84908 39335 ft 545 kts 59°
2026-04-22 12:10 -41.79140 135.93777 39333 ft 545 kts 59°
2026-04-22 12:11 -41.75469 136.02675 39334 ft 544 kts 59°
2026-04-22 12:11 -41.71803 136.11537 39333 ft 544 kts 59°
2026-04-22 12:12 -41.68753 136.18887 39333 ft 544 kts 59°
2026-04-22 12:12 -41.65053 136.27781 39333 ft 544 kts 59°
2026-04-22 12:13 -41.61372 136.36602 39344 ft 543 kts 59°
2026-04-22 12:13 -41.57693 136.45394 39342 ft 543 kts 59°
2026-04-22 12:14 -41.54005 136.54179 39340 ft 543 kts 59°
2026-04-22 12:14 -41.50313 136.62947 39345 ft 542 kts 59°
2026-04-22 12:15 -41.46606 136.71729 39346 ft 542 kts 59°
2026-04-22 12:15 -41.42913 136.80448 39343 ft 542 kts 59°
2026-04-22 12:16 -41.39196 136.89201 39347 ft 542 kts 59°
2026-04-22 12:16 -41.35465 136.97959 39349 ft 541 kts 59°
2026-04-22 12:17 -41.31766 137.06620 39347 ft 541 kts 59°
2026-04-22 12:17 -41.28036 137.15325 39353 ft 541 kts 59°
2026-04-22 12:18 -41.24303 137.24013 39360 ft 540 kts 59°
2026-04-22 12:18 -41.20569 137.32679 39354 ft 540 kts 59°
2026-04-22 12:19 -41.16843 137.41298 39361 ft 539 kts 59°
2026-04-22 12:19 -41.13109 137.49916 39359 ft 539 kts 59°
2026-04-22 12:20 -41.09369 137.58520 39360 ft 539 kts 59°
2026-04-22 12:20 -41.05622 137.67115 39363 ft 538 kts 59°
2026-04-22 12:21 -41.01868 137.75705 39362 ft 538 kts 59°
2026-04-22 12:21 -40.98132 137.84227 39358 ft 538 kts 59°
2026-04-22 12:22 -40.94375 137.92773 39362 ft 537 kts 59°
2026-04-22 12:22 -40.90625 138.01280 39360 ft 537 kts 59°
2026-04-22 12:23 -40.86869 138.09776 39352 ft 537 kts 59°
2026-04-22 12:23 -40.83096 138.18286 39364 ft 536 kts 59°
2026-04-22 12:24 -40.79326 138.26768 39362 ft 536 kts 59°
2026-04-22 12:24 -40.75531 138.35282 39362 ft 536 kts 59°
2026-04-22 12:25 -40.71777 138.43679 39364 ft 535 kts 59°
2026-04-22 12:25 -40.67995 138.52117 39366 ft 535 kts 59°
2026-04-22 12:26 -40.64204 138.60552 39364 ft 535 kts 59°
2026-04-22 12:26 -40.60400 138.68991 39366 ft 535 kts 59°
2026-04-22 12:27 -40.56599 138.77401 39369 ft 535 kts 59°
2026-04-22 12:27 -40.52769 138.85850 39376 ft 535 kts 59°
2026-04-22 12:28 -40.48964 138.94223 39376 ft 535 kts 59°
2026-04-22 12:28 -40.45166 139.02559 39372 ft 534 kts 59°
2026-04-22 12:29 -40.41331 139.10950 39379 ft 533 kts 59°
2026-04-22 12:29 -40.37515 139.19279 39373 ft 533 kts 59°
2026-04-22 12:30 -40.31799 139.31713 39368 ft 532 kts 59°
2026-04-22 12:31 -40.27973 139.40009 39376 ft 530 kts 59°
2026-04-22 12:31 -40.24148 139.48279 39370 ft 530 kts 59°
2026-04-22 12:32 -40.20342 139.56485 39366 ft 529 kts 59°
2026-04-22 12:32 -40.14617 139.68806 39364 ft 528 kts 59°
2026-04-22 12:33 -40.10821 139.76957 39363 ft 527 kts 59°
2026-04-22 12:33 -40.07006 139.85123 39377 ft 526 kts 59°
2026-04-22 12:34 -40.03182 139.93289 39372 ft 526 kts 59°
2026-04-22 12:34 -39.99344 140.01424 39361 ft 525 kts 59°
2026-04-22 12:35 -39.95623 140.09533 39369 ft 523 kts 61°
2026-04-22 12:35 -39.92003 140.17739 39371 ft 523 kts 61°
2026-04-22 12:36 -39.88337 140.25941 39364 ft 523 kts 60°
2026-04-22 12:36 -39.84658 140.34106 39370 ft 522 kts 60°
2026-04-22 12:37 -39.80981 140.42227 39367 ft 522 kts 60°
2026-04-22 12:37 -39.77297 140.50343 39371 ft 522 kts 60°
2026-04-22 12:38 -39.73601 140.58465 39368 ft 521 kts 60°
2026-04-22 12:38 -39.69893 140.66590 39365 ft 521 kts 60°
2026-04-22 12:39 -39.64348 140.78703 39361 ft 521 kts 60°
2026-04-22 12:40 -39.60657 140.86740 39364 ft 520 kts 60°
2026-04-22 12:40 -39.56945 140.94800 39360 ft 520 kts 60°
2026-04-22 12:41 -39.53221 141.02867 39357 ft 520 kts 60°
2026-04-22 12:41 -39.49519 141.10866 39355 ft 520 kts 60°
2026-04-22 12:42 -39.45786 141.18912 39354 ft 520 kts 60°
2026-04-22 12:42 -39.42056 141.26932 39359 ft 520 kts 60°
2026-04-22 12:43 -39.38340 141.34898 39355 ft 519 kts 59°
2026-04-22 12:43 -39.34600 141.42897 39345 ft 519 kts 59°
2026-04-22 12:44 -39.30860 141.50877 39359 ft 518 kts 59°
2026-04-22 12:44 -39.27130 141.58815 39364 ft 518 kts 59°
2026-04-22 12:45 -39.23378 141.66781 39361 ft 517 kts 59°
2026-04-22 12:45 -39.19654 141.74665 39349 ft 516 kts 59°
2026-04-22 12:46 -39.15915 141.82561 39347 ft 516 kts 59°
2026-04-22 12:46 -39.12183 141.90423 39346 ft 515 kts 59°
2026-04-22 12:47 -39.08435 141.98300 39342 ft 514 kts 59°
2026-04-22 12:47 -39.04693 142.06147 39339 ft 514 kts 59°
2026-04-22 12:48 -39.00966 142.13940 39342 ft 514 kts 58°
2026-04-22 12:48 -38.97200 142.21798 39345 ft 514 kts 58°
2026-04-22 12:49 -38.93465 142.29569 39340 ft 514 kts 58°
2026-04-22 12:49 -38.89708 142.37371 39342 ft 513 kts 58°
2026-04-22 12:50 -38.85943 142.45167 39346 ft 513 kts 58°
2026-04-22 12:50 -38.82194 142.52913 39338 ft 513 kts 58°
2026-04-22 12:51 -38.78422 142.60687 39340 ft 514 kts 58°
2026-04-22 12:51 -38.74636 142.68471 39334 ft 514 kts 58°
2026-04-22 12:52 -38.70864 142.76207 39345 ft 514 kts 58°
2026-04-22 12:52 -38.67074 142.83962 39324 ft 515 kts 58°
2026-04-22 12:53 -38.63268 142.91732 39326 ft 515 kts 58°
2026-04-22 12:53 -38.59467 142.99471 39326 ft 516 kts 58°
2026-04-22 12:54 -38.55628 143.07270 39322 ft 518 kts 57°
2026-04-22 12:54 -38.51795 143.15037 39331 ft 518 kts 57°
2026-04-22 12:55 -38.48583 143.21531 39335 ft 519 kts 57°
2026-04-22 12:55 -38.44088 143.30598 39338 ft 520 kts 57°
2026-04-22 12:56 -38.40197 143.38426 39339 ft 520 kts 57°
2026-04-22 12:56 -38.36336 143.46175 39337 ft 519 kts 57°
2026-04-22 12:57 -38.32461 143.53935 39331 ft 520 kts 57°
2026-04-22 12:57 -38.28560 143.61727 39330 ft 520 kts 57°
2026-04-22 12:58 -38.24692 143.69433 39325 ft 520 kts 57°
2026-04-22 12:58 -38.20791 143.77190 39325 ft 521 kts 57°
2026-04-22 12:59 -38.16869 143.84968 39321 ft 521 kts 57°
2026-04-22 12:59 -38.12935 143.92750 39318 ft 522 kts 57°
2026-04-22 13:00 -38.09019 144.00480 39329 ft 523 kts 57°
2026-04-22 13:00 -38.05095 144.08208 39327 ft 523 kts 57°
2026-04-22 13:01 -38.01141 144.15975 39333 ft 524 kts 57°
2026-04-22 13:01 -37.97172 144.23755 39346 ft 525 kts 57°
2026-04-22 13:02 -37.93203 144.31513 39336 ft 526 kts 57°
2026-04-22 13:02 -37.89881 144.37994 39336 ft 526 kts 57°
2026-04-22 13:03 -37.85901 144.45744 39337 ft 527 kts 57°
2026-04-22 13:03 -37.81900 144.53512 39357 ft 526 kts 57°
2026-04-22 13:04 -37.77249 144.62524 39361 ft 525 kts 58°
2026-04-22 13:04 -37.73901 144.69000 39354 ft 524 kts 57°
2026-04-22 13:05 -37.69929 144.76669 39352 ft 523 kts 58°
2026-04-22 13:05 -37.65621 144.83981 39377 ft 521 kts 49°
2026-04-22 13:06 -37.60482 144.90462 39369 ft 520 kts 41°
2026-04-22 13:06 -37.55063 144.96501 39360 ft 518 kts 41°
2026-04-22 13:07 -37.49696 145.02536 39386 ft 517 kts 41°
2026-04-22 13:07 -37.44340 145.08541 39380 ft 515 kts 41°
2026-04-22 13:08 -37.39001 145.14511 39389 ft 514 kts 41°
2026-04-22 13:08 -37.33666 145.20462 39377 ft 513 kts 41°
2026-04-22 13:09 -37.28348 145.26384 39368 ft 512 kts 41°
2026-04-22 13:09 -37.23004 145.32324 39379 ft 510 kts 41°
2026-04-22 13:10 -37.17748 145.38303 39371 ft 509 kts 45°
2026-04-22 13:10 -37.13264 145.45116 39366 ft 508 kts 55°
2026-04-22 13:11 -37.09182 145.52302 39370 ft 507 kts 54°
2026-04-22 13:11 -37.05048 145.59501 39377 ft 506 kts 54°
2026-04-22 13:12 -37.00950 145.66609 39363 ft 506 kts 54°
2026-04-22 13:12 -36.96822 145.73758 39364 ft 505 kts 54°
2026-04-22 13:13 -36.92711 145.80862 39369 ft 505 kts 54°
2026-04-22 13:13 -36.88597 145.87958 39359 ft 505 kts 54°
2026-04-22 13:14 -36.84458 145.95079 39370 ft 504 kts 54°
2026-04-22 13:14 -36.80349 146.02136 39368 ft 505 kts 54°
2026-04-22 13:15 -36.76211 146.09228 39372 ft 506 kts 54°
2026-04-22 13:15 -36.72064 146.16320 39373 ft 506 kts 54°
2026-04-22 13:16 -36.67893 146.23438 39384 ft 507 kts 54°
2026-04-22 13:16 -36.63733 146.30521 39387 ft 508 kts 54°
2026-04-22 13:17 -36.59566 146.37602 39400 ft 507 kts 54°
2026-04-22 13:17 -36.55388 146.44688 39391 ft 507 kts 54°
2026-04-22 13:18 -36.51244 146.51702 39385 ft 506 kts 54°
2026-04-22 13:18 -36.47046 146.58792 39387 ft 506 kts 54°
2026-04-22 13:19 -36.42889 146.65798 39384 ft 505 kts 54°
2026-04-22 13:19 -36.38722 146.72806 39382 ft 505 kts 54°
2026-04-22 13:20 -36.34551 146.79806 39379 ft 505 kts 54°
2026-04-22 13:20 -36.30370 146.86809 39394 ft 504 kts 54°
2026-04-22 13:21 -36.26204 146.93775 39392 ft 504 kts 54°
2026-04-22 13:21 -36.22028 147.00740 39387 ft 503 kts 54°
2026-04-22 13:22 -36.17845 147.07709 39387 ft 503 kts 54°
2026-04-22 13:22 -36.13663 147.14653 39386 ft 503 kts 54°
2026-04-22 13:23 -36.09475 147.21596 39394 ft 503 kts 54°
2026-04-22 13:23 -36.05284 147.28529 39394 ft 503 kts 54°
2026-04-22 13:24 -36.01114 147.35414 39399 ft 503 kts 54°
2026-04-22 13:24 -35.96918 147.42329 39404 ft 503 kts 54°
2026-04-22 13:25 -35.92712 147.49246 39414 ft 503 kts 54°
2026-04-22 13:25 -35.88509 147.56144 39409 ft 503 kts 54°
2026-04-22 13:26 -35.84298 147.63041 39418 ft 503 kts 54°
2026-04-22 13:26 -35.80081 147.69937 39416 ft 503 kts 53°
2026-04-22 13:27 -35.75893 147.76767 39421 ft 503 kts 53°
2026-04-22 13:27 -35.71679 147.83629 39427 ft 502 kts 53°
2026-04-22 13:28 -35.67462 147.90481 39425 ft 502 kts 53°
2026-04-22 13:28 -35.63239 147.97331 39427 ft 502 kts 53°
2026-04-22 13:29 -35.59021 148.04157 39437 ft 502 kts 53°
2026-04-22 13:29 -35.54813 148.10955 39435 ft 502 kts 53°
2026-04-22 13:30 -35.46553 148.24260 39434 ft 503 kts 53°
2026-04-22 13:30 -35.38048 148.37905 39451 ft 503 kts 53°
2026-04-22 13:31 -35.29500 148.51567 39445 ft 504 kts 53°
2026-04-22 13:31 -35.20991 148.65111 39438 ft 505 kts 53°
2026-04-22 13:32 -35.12398 148.78738 39445 ft 505 kts 53°
2026-04-22 13:32 -35.03797 148.92324 39437 ft 505 kts 53°
2026-04-22 13:33 -34.96760 149.03401 39427 ft 505 kts 53°
2026-04-22 13:33 -34.94611 149.06777 39242 ft 501 kts 53°
2026-04-22 13:33 -34.92479 149.10122 38991 ft 497 kts 53°
2026-04-22 13:33 -34.90384 149.13406 38701 ft 497 kts 53°
2026-04-22 13:34 -34.88260 149.16733 38391 ft 498 kts 53°
2026-04-22 13:34 -34.86133 149.20063 37755 ft 500 kts 53°
2026-04-22 13:34 -34.83992 149.23410 36910 ft 502 kts 53°
2026-04-22 13:34 -34.81833 149.26782 35966 ft 506 kts 53°
2026-04-22 13:35 -34.79654 149.30183 34925 ft 511 kts 53°
2026-04-22 13:35 -34.77464 149.33597 34108 ft 511 kts 53°
2026-04-22 13:35 -34.75297 149.36973 33637 ft 503 kts 54°
2026-04-22 13:35 -34.73331 149.40489 33158 ft 501 kts 62°
2026-04-22 13:36 -34.71423 149.44845 32449 ft 498 kts 65°
2026-04-22 13:36 -34.68220 149.52249 31264 ft 489 kts 64°
2026-04-22 13:36 -34.65131 149.59325 30054 ft 480 kts 64°
2026-04-22 13:36 -34.62042 149.66377 28902 ft 466 kts 65°
2026-04-22 13:37 -34.59023 149.73259 27738 ft 457 kts 65°
2026-04-22 13:37 -34.56065 149.79989 26609 ft 446 kts 65°
2026-04-22 13:37 -34.53178 149.86545 25479 ft 437 kts 65°
2026-04-22 13:37 -34.50334 149.92992 24367 ft 428 kts 65°
2026-04-22 13:38 -34.47560 149.99264 23288 ft 416 kts 65°
2026-04-22 13:38 -34.42139 150.11498 22216 ft 408 kts 65°
2026-04-22 13:38 -34.39466 150.17512 21481 ft 405 kts 65°
2026-04-22 13:39 -34.36826 150.23436 20483 ft 391 kts 65°
2026-04-22 13:39 -34.34264 150.29181 19348 ft 383 kts 65°
2026-04-22 13:39 -34.31760 150.34786 18184 ft 374 kts 65°
2026-04-22 13:39 -34.29481 150.39878 17071 ft 366 kts 64°
2026-04-22 13:40 -34.27682 150.43897 16189 ft 359 kts 64°
2026-04-22 13:40 -34.25305 150.49217 15017 ft 352 kts 64°
2026-04-22 13:40 -34.23047 150.54270 13867 ft 345 kts 64°
2026-04-22 13:40 -34.20754 150.59386 12515 ft 342 kts 64°
2026-04-22 13:41 -34.18494 150.64418 11237 ft 339 kts 64°
2026-04-22 13:41 -34.16267 150.69366 10400 ft 325 kts 64°
2026-04-22 13:41 -34.14202 150.73945 10135 ft 296 kts 64°
2026-04-22 13:41 -34.12301 150.78160 9659 ft 279 kts 64°
2026-04-22 13:42 -34.10385 150.82202 8844 ft 279 kts 56°
2026-04-22 13:42 -34.07378 150.85197 8052 ft 282 kts 37°
2026-04-22 13:42 -34.05320 150.86885 7511 ft 283 kts 38°
2026-04-22 13:42 -34.03702 150.88241 7214 ft 283 kts 38°
2026-04-22 13:43 -34.02095 150.89590 6899 ft 280 kts 38°
2026-04-22 13:43 -34.00496 150.90930 6542 ft 278 kts 38°
2026-04-22 13:43 -33.98925 150.92245 6239 ft 278 kts 38°
2026-04-22 13:43 -33.97321 150.93584 5908 ft 276 kts 38°
2026-04-22 13:44 -33.95759 150.94888 5565 ft 276 kts 37°
2026-04-22 13:44 -33.94180 150.96204 5224 ft 273 kts 37°
2026-04-22 13:44 -33.92627 150.97498 4895 ft 271 kts 37°
2026-04-22 13:44 -33.91073 150.98792 4670 ft 272 kts 37°
2026-04-22 13:45 -33.89527 151.00078 4358 ft 268 kts 37°
2026-04-22 13:45 -33.87997 151.01350 4004 ft 267 kts 37°
2026-04-22 13:45 -33.86477 151.02615 3719 ft 263 kts 37°
2026-04-22 13:45 -33.84999 151.03841 3613 ft 252 kts 37°
2026-04-22 13:46 -33.83587 151.05013 3513 ft 243 kts 37°
2026-04-22 13:46 -33.82239 151.06132 3437 ft 233 kts 37°
2026-04-22 13:46 -33.80945 151.07205 3358 ft 220 kts 37°
2026-04-22 13:46 -33.79711 151.08229 3264 ft 210 kts 38°
2026-04-22 13:47 -33.78568 151.09175 3093 ft 189 kts 38°
2026-04-22 13:47 -33.77697 151.10265 2798 ft 180 kts 71°
2026-04-22 13:47 -33.77637 151.11726 3033 ft 178 kts 108°
2026-04-22 13:47 -33.78324 151.12910 2970 ft 175 kts 143°
2026-04-22 13:48 -33.79372 151.13562 2793 ft 162 kts 160°
2026-04-22 13:48 -33.80377 151.13893 2584 ft 141 kts 166°
2026-04-22 13:48 -33.81305 151.14135 2402 ft 134 kts 167°
2026-04-22 13:48 -33.82204 151.14370 2223 ft 131 kts 166°
2026-04-22 13:49 -33.83098 151.14603 2056 ft 131 kts 167°
2026-04-22 13:49 -33.83982 151.14831 1871 ft 131 kts 166°
2026-04-22 13:49 -33.84873 151.15062 1697 ft 131 kts 168°
2026-04-22 13:49 -33.85770 151.15290 1509 ft 131 kts 167°
2026-04-22 13:50 -33.86360 151.15451 1418 ft 132 kts 167°
2026-04-22 13:50 -33.87563 151.15754 1174 ft 132 kts 167°
2026-04-22 13:50 -33.88156 151.15920 1057 ft 132 kts 167°
2026-04-22 13:50 -33.89345 151.16238 815 ft 132 kts 167°
2026-04-22 13:51 -33.90234 151.16466 663 ft 130 kts 167°
2026-04-22 13:51 -33.91125 151.16691 470 ft 131 kts 168°
2026-04-22 13:51 -33.91716 151.16840 334 ft 131 kts 167°
2026-04-22 13:51 -33.92598 151.17082 153 ft 129 kts 168°
2026-04-22 13:52 -33.93454 151.17281 32 ft 109 kts 160°
2026-04-22 13:52 -33.93993 151.17431 31 ft 44 kts 158°
2026-04-22 13:52 -33.94235 151.17498 35 ft 30 kts 166°
2026-04-22 13:52 -33.94396 151.17597 35 ft 23 kts 141°
2026-04-22 13:53 -33.94500 151.17698 35 ft 13 kts 130°
2026-04-22 13:53 -33.94509 151.17780 35 ft 11 kts 81°
2026-04-22 13:53 -33.94485 151.17880 35 ft 13 kts 52°
2026-04-22 13:53 -33.94392 151.17906 35 ft 16 kts 346°
2026-04-22 13:54 -33.94263 151.17872 35 ft 21 kts 348°
2026-04-22 13:54 -33.94113 151.17834 34 ft 14 kts 348°
2026-04-22 13:54 -33.94005 151.17805 34 ft 19 kts 347°
2026-04-22 13:54 -33.93863 151.17766 35 ft 23 kts 352°
2026-04-22 13:55 -33.93735 151.17786 35 ft 13 kts 14°
2026-04-22 13:55 -33.93663 151.17808 35 ft 11 kts 14°
2026-04-22 13:55 -33.93616 151.17828 35 ft 0 kts 50°
2026-04-22 13:55 -33.93605 151.17859 35 ft 6 kts 95°
2026-04-22 13:56 -33.93608 151.17872 35 ft 0 kts 121°
2026-04-22 13:56 -33.93796 151.16951 35 ft 0 kts 254°